DW3383 Weather Reports


time (UTC)temp
C
wind
direction
speed
KPH
gust
KPH
rain 1hr
cm
rain 24hr
cm
rain mn
cm
humidity
%
barometer
mb
20260503000806 13 314 3.2 14.5 0.00 0.00 0.00 43 1012.1
20260503000306 13 308 1.6 11.3 0.00 0.00 0.00 43 1012.0
20260502230805 13 330 1.6 8.0 0.00 0.00 0.00 43 1012.5
20260502230305 13 329 4.8 12.9 0.00 0.00 0.00 43 1012.3
20260502220804 13 316 4.8 11.3 0.00 0.00 0.00 43 1011.6
20260502210804 14 314 3.2 11.3 0.00 0.00 0.00 42 1011.3
20260502210305 14 313 4.8 14.5 0.00 0.00 0.00 43 1011.2
20260502200805 13 280 4.8 12.9 0.00 0.00 0.00 44 1011.4
20260502190805 12 300 3.2 12.9 0.00 0.00 0.00 47 1011.1
20260502190307 12 303 3.2 12.9 0.00 0.00 0.00 47 1011.2
20260502180804 12 289 3.2 4.8 0.00 0.00 0.00 50 1010.7
20260502180305 11 309 3.2 11.3 0.00 0.00 0.00 51 1010.8
20260502170306 10 280 6.4 14.5 0.00 0.00 0.00 62 1010.0
20260502160804 8 339 3.2 9.7 0.00 0.00 0.00 68 1009.3
20260502160305 8 7 4.8 12.9 0.00 0.00 0.00 68 1009.2
20260502150804 6 288 4.8 12.9 0.00 0.00 0.00 72 1008.4
20260502150305 6 278 8.0 19.3 0.00 0.00 0.00 72 1008.5
20260502130305 4 357 4.8 19.3 0.00 0.00 0.00 76 1008.1
20260502120805 4 326 6.4 11.3 0.00 0.00 0.00 76 1007.9
20260502110804 5 290 8.0 12.9 0.00 0.00 0.00 73 1008.1
20260502110305 5 6 6.4 16.1 0.00 0.00 0.00 74 1008.2
20260502100805 5 8 8.0 11.3 0.00 0.00 0.00 71 1008.8
20260502100304 5 294 9.7 19.3 0.00 0.00 0.00 70 1008.6
20260502090805 5 296 8.0 14.5 0.00 0.00 0.00 67 1008.8
20260502090305 5 286 9.7 16.1 0.00 0.00 0.00 66 1008.8
20260502070812 5 14 6.4 12.9 0.00 0.00 0.00 62 1009.5
20260502070305 5 6 8.0 14.5 0.00 0.00 0.00 62 1009.3
20260502060804 5 341 8.0 14.5 0.00 0.00 0.00 61 1010.3
20260502060304 5 309 4.8 14.5 0.00 0.00 0.00 60 1010.4
20260502050304 5 293 8.0 16.1 0.00 0.00 0.00 60 1010.6
20260502040804 6 284 8.0 14.5 0.00 0.00 0.00 58 1010.3
20260502040305 6 305 8.0 12.9 0.00 0.00 0.00 57 1010.3
20260502030804 7 301 3.2 8.0 0.00 0.00 0.00 55 1010.5
20260502030305 8 270 3.2 14.5 0.00 0.00 0.00 56 1010.6
20260502020805 10 325 8.0 12.9 0.00 0.00 0.00 46 1011.0
20260502020305 10 302 8.0 14.5 0.00 0.00 0.00 48 1011.0